User: anonymous   Login
Location: Unspecified
(34.4480°N, 0.0000°E)
Time: 21:28:05
(UTC+00:00)
Language:

AO-7 - Orbit

View from above orbital plane
View from above orbital plane
View from above satellite
View from above satellite

Ground track
Ground track

The orbit data is extracted from the following two-line orbital elements,

1  7530U 74089B   20027.19494486 -.00000044 +00000-0 +83721-5 0  9994
2  7530 101.7801 357.8471 0011949 278.8176 151.7254 12.53641740068162
Epoch (UTC): 27 January 2020 04:40:43
Eccentricity: 0.0011949
inclination: 101.7801°
perigee height: 1440 km
apogee height: 1458 km
right ascension of ascending node: 357.8471°
argument of perigee: 278.8176°
revolutions per day: 12.53641740
mean anomaly at epoch: 151.7254°
orbit number at epoch: 6816

The dashed part of the orbit path shows where the satellite is in the earth's shadow,  

DLR